Skip Page Navigation
NASA JPL Caltech
NASA Logo - Jet Propulsion Laboratory + View the NASA Portal
+ Center for Near-Earth Object Studies
JPL Home Earth Solar System Stars & Galaxies Technology
JPL Solar System Dynamics
BODIES ORBITS EPHEMERIDES TOOLS PHYSICAL DATA DISCOVERY FAQ SITE MAP
JPL Small-Body Database Browser
Search: [ help ]  
78523 (2002 RV96)
Classification: Main-belt Asteroid          SPK-ID: 2078523
Ephemeris | Orbit Diagram | Orbital Elements | Mission Design | Physical Parameters | Discovery Circumstances | Close-Approach Data ]

[ show orbit diagram ]
Orbital Elements at Epoch 2459000.5 (2020-May-31.0) TDB
Reference: JPL 14 (heliocentric ecliptic J2000)
 Element Value Uncertainty (1-sigma)   Units 
e .2079609115926352 4.4924e-08  
a 2.430959532794755 1.0337e-08 au
q 1.925414972309951 1.1139e-07 au
i 2.319934938217015 5.1397e-06 deg
node 169.0179924940423 9.1123e-05 deg
peri 142.7581609011282 9.1732e-05 deg
M 278.1955915129834 9.8983e-06 deg
tp 2459315.085882301831
(2021-Apr-10.58588230)
3.8715e-05 TDB
period 1384.410934853635
3.79
8.8299e-06
2.417e-08
d
yr
n .2600383967915282 1.6585e-09 deg/d
Q 2.936504093279559 1.2486e-08 au
  Orbit Determination Parameters
   # obs. used (total)      541  
   data-arc span      8000 days (21.90 yr)  
   first obs. used      1998-08-17  
   last obs. used      2020-07-12  
   planetary ephem.      DE431  
   SB-pert. ephem.      SB431-N16  
   condition code      0  
   norm. resid. RMS      .54008  
   source      ORB  
   producer      Otto Matic  
   solution date      2020-Nov-12 21:26:32  

Additional Information
 Earth MOID = .911857 au 
 Jupiter MOID = 2.34526 au 
 T_jup = 3.476 
[ show covariance matrix ]

Ephemeris | Orbit Diagram | Orbital Elements | Mission Design | Physical Parameters | Discovery Circumstances | Close-Approach Data ]

Physical Parameter Table
Parameter Symbol Value Units Sigma Reference Notes
absolute magnitude H 16.4   n/a MPO266289  

78523 (2002 RV96)          Discovered 2002-Sep-05 by LINEAR at Socorro
Reference: 20040415/Numbers.arcLast Updated: 2004-04-19

[ show close-approach data ]
Alternate Designations
 2002 RV96 = 1998 QS108 
Ephemeris | Orbit Diagram | Orbital Elements | Mission Design | Physical Parameters | Discovery Circumstances | Close-Approach Data ]
ABOUT SSD CREDITS/AWARDS PRIVACY/COPYRIGHT GLOSSARY LINKS
FirstGov 2020-Nov-28 21:06 UT
(server date/time)  
NASA Home Page
Site Manager:   Ryan S. Park
Webmaster  Alan B. Chamberlin